Regional Weather Roundup
Issued by NWS Sioux Falls, SD

Home | Current Version | Previous Version | Text Only | Print | Product List | Glossary Off
Versions: 1 2 3 4 5 6 7 8 9 10 11 12 13 14 15 16 17 18 19 20 21 22 23 24 25 26 27 28 29 30 31 32 33 34 35 36 37 38 39 40 41 42 43 44 45 46 47 48 49 50

000
ASUS43 KFSD 241202
RWRFSD

WEATHER ROUNDUP FOR SE SOUTH DAKOTA/SW MINNESOTA/NW IOWA
NATIONAL WEATHER SERVICE SIOUX FALLS SD
700 AM CDT TUE APR 24 2018

NOTE: "FAIR" INDICATES FEW OR NO CLOUDS BELOW 12,000 FEET WITH NO
SIGNIFICANT WEATHER AND OR OBSTRUCTIONS TO VISIBILITY.


SDZ038>040-050-052>070-241300-
SOUTHEAST SOUTH DAKOTA

CITY           SKY/WX    TMP DP  RH WIND       PRES   REMARKS
BROOKINGS      CLOUDY    47  40  76 NE8       30.16R
CHAMBERLAIN    CLOUDY    47  47 100 SW6       30.15R
6HR MIN TEMP:  47; 6HR MAX TEMP:  57;

HURON          LGT RAIN  48  44  86 NE12      30.18R
6HR MIN TEMP:  48; 6HR MAX TEMP:  56; 6HR PCP:  0.01;

MADISON        CLOUDY    45  45 100 N6        30.15S
MITCHELL       CLOUDY    50  45  83 NE5       30.15R
6HR MIN TEMP:  49; 6HR MAX TEMP:  56; 6HR PCP: TRACE;

SIOUX FALLS    CLOUDY    47  40  76 NE3       30.14R
6HR MIN TEMP:  43; 6HR MAX TEMP:  48;

WINNER         CLOUDY    45  40  82 W22       30.17R
YANKTON        CLOUDY    46  41  82 W3        30.15R
$$

MNZ071-072-080-081-089-090-097-098-241300-
SOUTHWEST MINNESOTA

CITY           SKY/WX    TMP DP  RH WIND       PRES   REMARKS
FAIRMONT       CLEAR     40  34  79 CALM      30.13S
JACKSON        CLEAR     37  32  81 NW6       30.14R
LUVERNE        CLOUDY    43  37  81 CALM      30.14S
MARSHALL       CLOUDY    43  40  89 NW9       30.17R
6HR MIN TEMP:  38; 6HR MAX TEMP:  46;

MONTEVIDEO     CLOUDY    45  36  70 N10       30.17R
PIPESTONE      CLOUDY   N/A N/A N/A NE3       30.15R
REDWOOD FALLS  CLOUDY    42  40  92 NW5       30.14R
TRACY          MOCLDY    43  38  82 W6        30.15R
WINDOM         CLEAR     37  25  60 CALM      30.14S
WORTHINGTON    CLOUDY    39  34  82 W3        30.15R
$$

IAZ001>003-012>014-020>022-031-032-NEZ013-014-SDZ071-241300-
NORTHWEST IOWA

CITY           SKY/WX    TMP DP  RH WIND       PRES   REMARKS
CHEROKEE       CLEAR     37  37  99 CALM      30.14R FOG
DENISON        CLEAR     39  39 100 N3        30.14S
ESTHERVILLE    CLEAR     36  33  89 NW5       30.12S
LE MARS        CLOUDY    39  37  93 CALM      30.13S
ORANGE CITY    MOCLDY    48  41  76 CALM      30.13S
SHELDON        CLOUDY    39  39 100 CALM      30.12R
SIOUX CITY     MOCLDY    40  37  89 W3        30.13R
6HR MIN TEMP:  39; 6HR MAX TEMP:  50;

SPENCER        CLEAR     38  34  85 NW5       30.13S
6HR MIN TEMP:  35; 6HR MAX TEMP:  42;

STORM LAKE     CLEAR     48  39  71 E3        30.12S
$$

ABBREVIATIONS USED IN REMARKS
   TC - TEMPERATURE IN CELSIUS
  WCI - WIND CHILL INDEX
   HX - HEAT INDEX
  VSB - VISIBILITY





USA.gov is the U.S. government's official web portal to all federal, state and local government web resources and services.